User: anonymous   Login
Location: Dumpton Point
(51.3500°N, 1.4433°E)
Time: 18:03:19
(UTC+00:00)
Language:

Meteor 2-3 Rocket - Orbit

View from above orbital plane
View from above orbital plane
View from above satellite
View from above satellite

Ground track
Ground track

The orbit data is extracted from the following two-line orbital elements,

1 10515U 77117B   20185.40821411 -.00000064  00000-0 -44199-4 0  9995
2 10515  81.2469 277.8742 0027556 342.6132  17.4091 14.08720465186393
Epoch (UTC): 03 July 2020 09:47:49
Eccentricity: 0.0027556
inclination: 81.2469°
perigee height: 844 km
apogee height: 884 km
right ascension of ascending node: 277.8742°
argument of perigee: 342.6132°
revolutions per day: 14.08720465
mean anomaly at epoch: 17.4091°
orbit number at epoch: 18639

The dashed part of the orbit path shows where the satellite is in the earth's shadow,  

DLR